QPF
0.00 0.01 0.00 0.01 0.00 0.00 0.00 0.01 0.01 0.01 0.01 0.00 0.00 0.01 0.02 0.03 0.04 0.05 0.04 0.03 0.05 0.07 0.08 0.08 0.07 0.05 0.03 0.03 0.03 0.03 0.03 0.04 0.04 0.04 0.05 0.06 0.06 0.06 0.05 0.06 0.07 0.06 0.04 0.03
0.01 0.00 0.00 0.00 0.01 0.00 0.00 0.01 0.02 0.02 0.01 0.01 0.01 0.01 0.01 0.02 0.03 0.07 0.07 0.05 0.06 0.07 0.08 0.09 0.08 0.05 0.02 0.02 0.02 0.03 0.03 0.05 0.05 0.04 0.04 0.04 0.04 0.04 0.04 0.04 0.04 0.04 0.04 0.04
0.01 0.00 0.00 0.00 0.01 0.01 0.01 0.01 0.01 0.01 0.01 0.01 0.01 0.01 0.01 0.01 0.02 0.05 0.06 0.04 0.05 0.06 0.07 0.07 0.05 0.04 0.02 0.02 0.01 0.01 0.01 0.02 0.02 0.03 0.02 0.02 0.02 0.02 0.02 0.02 0.03 0.04 0.04 0.04
0.01 0.00 0.00 0.01 0.00 0.01 0.01 0.01 0.01 0.01 0.01 0.02 0.01 0.02 0.03 0.04 0.03 0.03 0.03 0.03 0.03 0.05 0.07 0.07 0.04 0.03 0.02 0.02 0.02 0.01 0.01 0.01 0.02 0.02 0.02 0.01 0.01 0.01 0.01 0.01 0.01 0.02 0.03 0.04
0.01 0.01 0.00 0.01 0.00 0.00 0.00 0.01 0.01 0.01 0.01 0.01 0.02 0.03 0.05 0.05 0.03 0.04 0.03 0.02 0.03 0.03 0.06 0.06 0.03 0.02 0.02 0.02 0.02 0.02 0.02 0.03 0.03 0.03 0.02 0.02 0.02 0.02 0.01 0.01 0.01 0.01 0.01 0.03
0.01 0.01 0.01 0.00 0.00 0.00 0.00 0.01 0.01 0.01 0.02 0.02 0.02 0.03 0.03 0.02 0.03 0.04 0.01 0.02 0.02 0.02 0.01 0.02 0.02 0.03 0.03 0.03 0.03 0.03 0.02 0.02 0.03 0.03 0.03 0.03 0.03 0.02 0.01 0.01 0.01 0.01 0.01 0.02
0.01 0.01 0.01 0.00 0.00 0.00 0.01 0.01 0.02 0.02 0.04 0.02 0.02 0.02 0.03 0.02 0.02 0.02 0.02 0.02 0.01 0.02 0.01 0.01 0.01 0.02 0.03 0.03 0.03 0.03 0.02 0.02 0.02 0.02 0.03 0.03 0.02 0.02 0.01 0.02 0.01 0.02 0.02 0.03
0.01 0.00 0.00 0.00 0.00 0.00 0.01 0.01 0.02 0.03 0.03 0.02 0.02 0.03 0.04 0.04 0.03 0.03 0.02 0.02 0.02 0.03 0.03 0.02 0.02 0.02 0.04 0.05 0.06 0.06 0.04 0.03 0.03 0.02 0.03 0.03 0.03 0.03 0.03 0.03 0.03 0.03 0.03 0.03
0.00 0.00 0.01 0.01 0.01 0.01 0.01 0.01 0.01 0.02 0.02 0.03 0.02 0.03 0.03 0.03 0.03 0.02 0.02 0.03 0.03 0.02 0.04 0.06 0.07 0.06 0.05 0.05 0.06 0.06 0.05 0.04 0.03 0.03 0.03 0.03 0.03 0.03 0.04 0.05 0.05 0.04 0.05 0.05
0.00 0.01 0.01 0.01 0.01 0.01 0.01 0.01 0.01 0.02 0.03 0.05 0.03 0.03 0.04 0.04 0.04 0.03 0.02 0.02 0.02 0.02 0.02 0.03 0.07 0.09 0.09 0.07 0.05 0.05 0.04 0.04 0.05 0.05 0.05 0.04 0.04 0.05 0.05 0.05 0.05 0.06 0.07 0.06
0.01 0.01 0.01 0.01 0.01 0.01 0.01 0.01 0.01 0.01 0.02 0.04 0.04 0.03 0.03 0.02 0.04 0.04 0.02 0.01 0.01 0.01 0.01 0.02 0.03 0.07 0.11 0.12 0.10 0.09 0.07 0.06 0.07 0.06 0.04 0.04 0.04 0.05 0.05 0.05 0.05 0.05 0.05 0.05
0.01 0.01 0.01 0.01 0.01 0.01 0.01 0.01 0.01 0.01 0.02 0.02 0.03 0.04 0.03 0.03 0.03 0.02 0.02 0.01 0.01 0.01 0.01 0.02 0.03 0.04 0.06 0.10 0.16 0.18 0.12 0.06 0.07 0.07 0.07 0.07 0.07 0.06 0.06 0.06 0.06 0.05 0.05 0.05
0.00 0.01 0.01 0.01 0.01 0.01 0.01 0.01 0.01 0.01 0.02 0.02 0.03 0.05 0.04 0.03 0.03 0.03 0.03 0.02 0.02 0.01 0.01 0.02 0.02 0.03 0.03 0.03 0.04 0.07 0.08 0.06 0.07 0.11 0.11 0.09 0.10 0.10 0.08 0.05 0.04 0.05 0.06 0.05
0.00 0.01 0.01 0.01 0.01 0.01 0.01 0.01 0.01 0.01 0.01 0.01 0.02 0.04 0.03 0.04 0.03 0.03 0.04 0.03 0.02 0.01 0.01 0.02 0.01 0.01 0.02 0.02 0.03 0.02 0.03 0.05 0.08 0.17 0.22 0.17 0.12 0.11 0.09 0.05 0.04 0.05 0.06 0.05
0.00 0.01 0.01 0.01 0.00 0.01 0.01 0.01 0.01 0.01 0.01 0.01 0.01 0.01 0.03 0.04 0.06 0.04 0.03 0.03 0.02 0.01 0.01 0.01 0.01 0.01 0.02 0.03 0.03 0.03 0.04 0.06 0.07 0.12 0.15 0.11 0.07 0.06 0.06 0.05 0.05 0.04 0.04 0.04
0.01 0.00 0.01 0.02 0.01 0.00 0.01 0.01 0.02 0.01 0.00 0.00 0.00 0.01 0.02 0.02 0.05 0.03 0.03 0.03 0.03 0.02 0.02 0.02 0.01 0.01 0.02 0.02 0.03 0.04 0.05 0.05 0.05 0.04 0.04 0.04 0.04 0.04 0.03 0.03 0.03 0.03 0.03 0.02
0.01 0.01 0.00 0.01 0.01 0.00 0.01 0.01 0.02 0.01 0.01 0.01 0.01 0.01 0.01 0.01 0.02 0.02 0.03 0.03 0.02 0.02 0.03 0.03 0.02 0.01 0.01 0.02 0.02 0.02 0.02 0.02 0.03 0.03 0.02 0.02 0.02 0.01 0.01 0.01 0.02 0.02 0.02 0.02
0.01 0.01 0.01 0.01 0.02 0.01 0.01 0.01 0.01 0.01 0.01 0.01 0.00 0.01 0.01 0.01 0.02 0.02 0.02 0.02 0.01 0.02 0.03 0.02 0.01 0.01 0.01 0.01 0.01 0.01 0.02 0.02 0.02 0.02 0.02 0.02 0.01 0.01 0.01 0.01 0.02 0.02 0.02 0.03
0.02 0.01 0.02 0.01 0.01 0.01 0.01 0.01 0.01 0.01 0.01 0.00 0.01 0.01 0.03 0.03 0.02 0.02 0.02 0.01 0.01 0.01 0.02 0.03 0.03 0.03 0.02 0.01 0.01 0.02 0.02 0.02 0.02 0.02 0.02 0.01 0.01 0.01 0.01 0.01 0.02 0.02 0.02 0.02
0.01 0.01 0.02 0.03 0.02 0.01 0.01 0.01 0.01 0.01 0.02 0.00 0.01 0.01 0.02 0.04 0.04 0.03 0.02 0.01 0.01 0.01 0.01 0.03 0.04 0.04 0.02 0.02 0.02 0.02 0.02 0.02 0.02 0.02 0.01 0.01 0.01 0.02 0.02 0.02 0.02 0.02 0.03 0.02
0.01 0.01 0.02 0.02 0.03 0.02 0.01 0.01 0.01 0.02 0.01 0.01 0.02 0.04 0.04 0.02 0.01 0.01 0.00 0.00 0.00 0.00 0.00 0.01 0.01 0.02 0.02 0.02 0.02 0.02 0.01 0.01 0.02 0.02 0.01 0.01 0.01 0.01 0.02 0.02 0.03 0.02 0.03 0.03
0.01 0.02 0.02 0.03 0.03 0.03 0.03 0.02 0.02 0.02 0.01 0.01 0.02 0.04 0.04 0.02 0.01 0.00 0.00 0.00 0.00 0.00 0.00 0.01 0.01 0.01 0.02 0.02 0.02 0.01 0.01 0.01 0.01 0.01 0.02 0.02 0.02 0.02 0.02 0.02 0.02 0.02 0.02 0.02
0.01 0.02 0.02 0.03 0.03 0.03 0.03 0.03 0.02 0.02 0.01 0.01 0.01 0.01 0.02 0.02 0.01 0.01 0.00 0.00 0.00 0.00 0.01 0.01 0.01 0.01 0.01 0.01 0.02 0.02 0.02 0.02 0.02 0.02 0.03 0.03 0.03 0.03 0.03 0.03 0.03 0.03 0.02 0.02
0.00 0.01 0.01 0.01 0.02 0.03 0.03 0.04 0.03 0.02 0.01 0.01 0.01 0.01 0.00 0.01 0.01 0.01 0.00 0.00 0.00 0.00 0.01 0.01 0.01 0.01 0.00 0.01 0.01 0.01 0.02 0.02 0.03 0.03 0.03 0.03 0.03 0.02 0.02 0.03 0.03 0.03 0.02 0.02
0.01 0.01 0.01 0.01 0.02 0.02 0.02 0.02 0.03 0.04 0.04 0.02 0.01 0.00 0.00 0.00 0.00 0.00 0.00 0.00 0.00 0.00 0.01 0.00 0.01 0.00 0.00 0.01 0.01 0.01 0.01 0.01 0.02 0.02 0.02 0.02 0.01 0.01 0.01 0.01 0.02 0.02 0.03 0.03
0.01 0.01 0.01 0.01 0.02 0.03 0.02 0.02 0.01 0.02 0.05 0.04 0.02 0.01 0.00 0.00 0.00 0.00 0.00 0.00 0.00 0.00 0.00 0.00 0.01 0.01 0.01 0.01 0.01 0.01 0.01 0.01 0.01 0.01 0.01 0.02 0.02 0.01 0.01 0.01 0.01 0.01 0.02 0.03
MSLP
1010.97 1011.71 1012.13 1012.21 1012.03 1011.67 1011.24 1010.86 1010.60 1010.47 1010.45 1010.49 1010.53 1010.49 1010.35 1010.08 1009.72 1009.32 1008.95 1008.65 1008.47 1008.42 1008.49 1008.64 1008.83 1009.01 1009.16 1009.26 1009.32 1009.37 1009.43 1009.53 1009.68 1009.89 1010.15 1010.45 1010.76 1011.06 1011.34 1011.60 1011.84 1012.08 1012.31 1012.55
1010.88 1011.42 1011.66 1011.63 1011.42 1011.12 1010.84 1010.66 1010.62 1010.70 1010.85 1011.00 1011.08 1011.03 1010.83 1010.49 1010.06 1009.62 1009.24 1008.98 1008.86 1008.88 1009.01 1009.19 1009.38 1009.51 1009.58 1009.57 1009.51 1009.44 1009.40 1009.42 1009.52 1009.69 1009.93 1010.20 1010.48 1010.74 1010.97 1011.17 1011.37 1011.56 1011.78 1012.03
1010.47 1010.80 1010.89 1010.79 1010.60 1010.42 1010.35 1010.43 1010.65 1010.97 1011.32 1011.59 1011.71 1011.64 1011.38 1010.96 1010.46 1009.98 1009.59 1009.36 1009.30 1009.39 1009.58 1009.80 1009.99 1010.08 1010.07 1009.95 1009.78 1009.60 1009.46 1009.41 1009.45 1009.59 1009.80 1010.04 1010.28 1010.50 1010.68 1010.83 1010.97 1011.12 1011.31 1011.55
1009.83 1009.96 1009.92 1009.80 1009.69 1009.69 1009.88 1010.25 1010.78 1011.37 1011.91 1012.31 1012.48 1012.39 1012.05 1011.54 1010.96 1010.42 1010.01 1009.78 1009.76 1009.90 1010.14 1010.39 1010.57 1010.64 1010.56 1010.36 1010.09 1009.81 1009.59 1009.47 1009.46 1009.57 1009.75 1009.96 1010.17 1010.34 1010.47 1010.56 1010.65 1010.75 1010.90 1011.11
1009.08 1009.06 1008.94 1008.83 1008.85 1009.07 1009.54 1010.23 1011.06 1011.91 1012.66 1013.17 1013.38 1013.26 1012.85 1012.24 1011.55 1010.93 1010.47 1010.22 1010.21 1010.37 1010.64 1010.90 1011.08 1011.12 1010.99 1010.73 1010.39 1010.04 1009.75 1009.57 1009.51 1009.58 1009.73 1009.91 1010.08 1010.22 1010.30 1010.34 1010.37 1010.43 1010.54 1010.72
1008.38 1008.24 1008.09 1008.04 1008.21 1008.66 1009.40 1010.39 1011.50 1012.59 1013.50 1014.11 1014.35 1014.19 1013.70 1012.98 1012.19 1011.47 1010.93 1010.64 1010.60 1010.75 1011.02 1011.28 1011.46 1011.47 1011.32 1011.02 1010.63 1010.22 1009.88 1009.65 1009.55 1009.57 1009.67 1009.82 1009.95 1010.04 1010.08 1010.08 1010.07 1010.09 1010.17 1010.33
1007.84 1007.65 1007.51 1007.55 1007.87 1008.52 1009.49 1010.71 1012.03 1013.30 1014.33 1015.00 1015.24 1015.04 1014.47 1013.66 1012.77 1011.96 1011.34 1010.98 1010.89 1011.01 1011.25 1011.50 1011.66 1011.66 1011.49 1011.17 1010.75 1010.30 1009.92 1009.64 1009.49 1009.46 1009.51 1009.61 1009.69 1009.74 1009.74 1009.71 1009.68 1009.67 1009.74 1009.89
1007.55 1007.36 1007.27 1007.40 1007.84 1008.63 1009.75 1011.11 1012.56 1013.90 1014.99 1015.67 1015.90 1015.66 1015.03 1014.15 1013.19 1012.31 1011.62 1011.20 1011.05 1011.12 1011.32 1011.54 1011.68 1011.67 1011.48 1011.15 1010.71 1010.24 1009.82 1009.49 1009.28 1009.19 1009.18 1009.21 1009.25 1009.25 1009.23 1009.18 1009.13 1009.13 1009.21 1009.37
1007.49 1007.36 1007.34 1007.55 1008.07 1008.93 1010.10 1011.49 1012.93 1014.27 1015.32 1015.98 1016.17 1015.90 1015.26 1014.36 1013.38 1012.46 1011.74 1011.28 1011.08 1011.10 1011.25 1011.43 1011.53 1011.49 1011.29 1010.94 1010.49 1010.00 1009.54 1009.16 1008.89 1008.73 1008.64 1008.61 1008.59 1008.56 1008.51 1008.46 1008.43 1008.45 1008.55 1008.75
1007.61 1007.58 1007.65 1007.92 1008.47 1009.31 1010.43 1011.72 1013.06 1014.28 1015.24 1015.82 1015.98 1015.71 1015.08 1014.22 1013.29 1012.41 1011.70 1011.23 1011.00 1010.98 1011.07 1011.19 1011.24 1011.17 1010.95 1010.58 1010.11 1009.59 1009.09 1008.66 1008.32 1008.08 1007.92 1007.82 1007.75 1007.69 1007.63 1007.59 1007.59 1007.65 1007.80 1008.04
1007.81 1007.92 1008.09 1008.40 1008.92 1009.67 1010.63 1011.74 1012.88 1013.91 1014.72 1015.21 1015.32 1015.08 1014.53 1013.78 1012.95 1012.18 1011.55 1011.11 1010.88 1010.82 1010.85 1010.90 1010.89 1010.76 1010.49 1010.09 1009.59 1009.04 1008.50 1008.02 1007.61 1007.30 1007.07 1006.90 1006.78 1006.70 1006.65 1006.63 1006.67 1006.79 1007.00 1007.30
1007.99 1008.26 1008.53 1008.87 1009.32 1009.93 1010.69 1011.55 1012.43 1013.22 1013.85 1014.23 1014.32 1014.14 1013.71 1013.12 1012.47 1011.86 1011.35 1010.99 1010.78 1010.68 1010.66 1010.63 1010.53 1010.32 1009.99 1009.54 1009.00 1008.41 1007.83 1007.30 1006.84 1006.46 1006.17 1005.95 1005.80 1005.70 1005.66 1005.68 1005.78 1005.95 1006.22 1006.59
1008.10 1008.53 1008.90 1009.25 1009.63 1010.08 1010.61 1011.20 1011.79 1012.34 1012.79 1013.07 1013.15 1013.05 1012.78 1012.39 1011.96 1011.54 1011.18 1010.92 1010.74 1010.63 1010.53 1010.41 1010.21 1009.91 1009.50 1008.98 1008.40 1007.77 1007.15 1006.58 1006.07 1005.65 1005.31 1005.06 1004.88 1004.78 1004.76 1004.82 1004.97 1005.21 1005.54 1005.96
1008.12 1008.70 1009.16 1009.53 1009.84 1010.14 1010.45 1010.77 1011.11 1011.43 1011.70 1011.89 1011.99 1011.98 1011.88 1011.70 1011.49 1011.28 1011.09 1010.92 1010.78 1010.65 1010.49 1010.26 1009.96 1009.56 1009.06 1008.47 1007.84 1007.17 1006.53 1005.92 1005.39 1004.93 1004.56 1004.29 1004.10 1004.01 1004.02 1004.11 1004.31 1004.60 1004.99 1005.44
1008.09 1008.79 1009.33 1009.71 1009.97 1010.14 1010.27 1010.38 1010.49 1010.61 1010.74 1010.87 1010.98 1011.06 1011.11 1011.14 1011.13 1011.11 1011.06 1010.99 1010.89 1010.73 1010.49 1010.18 1009.77 1009.26 1008.68 1008.03 1007.35 1006.66 1005.99 1005.37 1004.82 1004.36 1003.98 1003.69 1003.51 1003.43 1003.45 1003.58 1003.82 1004.15 1004.57 1005.06
1008.06 1008.85 1009.44 1009.84 1010.07 1010.15 1010.14 1010.09 1010.03 1010.00 1010.02 1010.09 1010.20 1010.36 1010.53 1010.71 1010.87 1010.99 1011.06 1011.06 1010.98 1010.79 1010.50 1010.10 1009.60 1009.02 1008.36 1007.66 1006.95 1006.24 1005.57 1004.95 1004.41 1003.94 1003.56 1003.28 1003.10 1003.03 1003.07 1003.23 1003.49 1003.85 1004.29 1004.80
1008.10 1008.92 1009.54 1009.94 1010.15 1010.19 1010.10 1009.94 1009.77 1009.63 1009.56 1009.57 1009.68 1009.87 1010.11 1010.38 1010.65 1010.87 1011.01 1011.06 1010.98 1010.78 1010.45 1009.99 1009.43 1008.78 1008.08 1007.36 1006.63 1005.93 1005.27 1004.66 1004.13 1003.67 1003.31 1003.03 1002.86 1002.80 1002.85 1003.02 1003.30 1003.67 1004.12 1004.63
1008.21 1009.01 1009.62 1010.02 1010.22 1010.24 1010.11 1009.90 1009.66 1009.45 1009.31 1009.28 1009.35 1009.53 1009.78 1010.09 1010.39 1010.65 1010.83 1010.90 1010.83 1010.62 1010.27 1009.79 1009.20 1008.54 1007.83 1007.11 1006.39 1005.71 1005.07 1004.49 1003.98 1003.54 1003.19 1002.93 1002.77 1002.72 1002.78 1002.95 1003.23 1003.60 1004.05 1004.55
1008.38 1009.11 1009.68 1010.07 1010.26 1010.27 1010.14 1009.92 1009.65 1009.39 1009.20 1009.11 1009.12 1009.25 1009.47 1009.75 1010.04 1010.30 1010.48 1010.55 1010.50 1010.30 1009.96 1009.49 1008.92 1008.28 1007.60 1006.91 1006.22 1005.57 1004.96 1004.41 1003.93 1003.52 1003.18 1002.94 1002.79 1002.75 1002.82 1003.00 1003.27 1003.64 1004.07 1004.55
1008.54 1009.17 1009.67 1010.02 1010.21 1010.24 1010.12 1009.91 1009.63 1009.35 1009.12 1008.96 1008.91 1008.96 1009.11 1009.32 1009.56 1009.78 1009.95 1010.03 1009.99 1009.82 1009.53 1009.11 1008.60 1008.02 1007.40 1006.75 1006.12 1005.51 1004.94 1004.42 1003.97 1003.58 1003.27 1003.05 1002.92 1002.89 1002.97 1003.15 1003.42 1003.77 1004.19 1004.64
1008.62 1009.13 1009.55 1009.87 1010.05 1010.09 1010.01 1009.81 1009.55 1009.27 1009.01 1008.79 1008.66 1008.63 1008.68 1008.80 1008.97 1009.15 1009.29 1009.38 1009.37 1009.26 1009.03 1008.70 1008.28 1007.78 1007.23 1006.66 1006.08 1005.52 1004.99 1004.51 1004.08 1003.72 1003.44 1003.24 1003.14 1003.13 1003.23 1003.41 1003.68 1004.02 1004.41 1004.83
1008.56 1008.96 1009.31 1009.58 1009.76 1009.82 1009.77 1009.62 1009.39 1009.11 1008.83 1008.57 1008.37 1008.24 1008.20 1008.24 1008.33 1008.46 1008.58 1008.68 1008.71 1008.67 1008.54 1008.31 1007.98 1007.59 1007.13 1006.63 1006.11 1005.60 1005.11 1004.65 1004.25 1003.92 1003.67 1003.50 1003.43 1003.45 1003.57 1003.77 1004.04 1004.37 1004.73 1005.12
1008.35 1008.66 1008.95 1009.19 1009.37 1009.46 1009.45 1009.35 1009.15 1008.90 1008.61 1008.32 1008.06 1007.86 1007.74 1007.69 1007.71 1007.79 1007.90 1008.01 1008.10 1008.13 1008.09 1007.96 1007.74 1007.45 1007.08 1006.66 1006.20 1005.73 1005.27 1004.85 1004.47 1004.17 1003.95 1003.81 1003.77 1003.83 1003.97 1004.19 1004.47 1004.78 1005.13 1005.48
1008.04 1008.28 1008.53 1008.75 1008.94 1009.06 1009.10 1009.05 1008.90 1008.68 1008.40 1008.09 1007.80 1007.54 1007.34 1007.22 1007.19 1007.22 1007.32 1007.44 1007.56 1007.66 1007.70 1007.67 1007.55 1007.35 1007.06 1006.71 1006.31 1005.88 1005.46 1005.06 1004.72 1004.44 1004.25 1004.14 1004.14 1004.23 1004.39 1004.63 1004.91 1005.22 1005.54 1005.86
1007.70 1007.91 1008.13 1008.36 1008.56 1008.72 1008.80 1008.80 1008.70 1008.52 1008.26 1007.95 1007.63 1007.32 1007.07 1006.89 1006.80 1006.79 1006.86 1006.98 1007.13 1007.27 1007.38 1007.42 1007.38 1007.26 1007.05 1006.76 1006.41 1006.02 1005.64 1005.27 1004.95 1004.70 1004.53 1004.46 1004.48 1004.59 1004.78 1005.02 1005.30 1005.60 1005.90 1006.19
1007.44 1007.64 1007.87 1008.10 1008.32 1008.51 1008.64 1008.68 1008.63 1008.48 1008.24 1007.93 1007.60 1007.26 1006.96 1006.72 1006.57 1006.51 1006.53 1006.63 1006.78 1006.93 1007.07 1007.17 1007.19 1007.12 1006.97 1006.74 1006.45 1006.11 1005.76 1005.43 1005.15 1004.92 1004.78 1004.73 1004.76 1004.88 1005.07 1005.31 1005.58 1005.86 1006.14 1006.40
Thickness
5781 5763 5754 5763 5768 5767 5766 5761 5758 5768 5783 5773 5763 5760 5765 5771 5769 5763 5760 5760 5758 5755 5755 5754 5752 5750 5747 5743 5740 5738 5735 5731 5728 5724 5720 5716 5714 5713 5712 5711 5710 5708 5706 5705
5759 5754 5773 5779 5777 5772 5766 5758 5757 5766 5778 5769 5755 5753 5762 5766 5764 5764 5760 5757 5754 5751 5750 5747 5746 5744 5742 5739 5735 5732 5730 5727 5724 5720 5717 5714 5711 5708 5706 5705 5704 5703 5701 5700
5753 5767 5784 5777 5769 5764 5763 5759 5759 5758 5766 5765 5752 5741 5750 5757 5761 5760 5758 5756 5754 5751 5747 5744 5742 5740 5738 5734 5731 5728 5724 5722 5719 5716 5712 5708 5704 5700 5697 5696 5696 5697 5696 5695
5761 5777 5778 5770 5766 5765 5753 5772 5770 5763 5748 5737 5746 5718 5737 5745 5747 5749 5750 5750 5749 5749 5747 5743 5740 5737 5735 5732 5728 5724 5720 5717 5714 5710 5706 5701 5696 5692 5691 5689 5689 5690 5690 5688
5760 5773 5770 5765 5771 5773 5767 5776 5770 5762 5746 5733 5736 5719 5723 5739 5734 5740 5745 5747 5747 5746 5744 5741 5739 5735 5732 5728 5723 5719 5715 5711 5708 5705 5701 5696 5691 5688 5686 5685 5684 5683 5683 5683
5770 5782 5779 5776 5783 5783 5777 5767 5756 5746 5730 5714 5728 5716 5714 5727 5734 5739 5742 5744 5743 5742 5741 5738 5736 5732 5727 5723 5718 5713 5709 5705 5703 5700 5697 5692 5687 5684 5681 5679 5677 5677 5676 5676
5755 5768 5780 5783 5770 5771 5764 5736 5712 5708 5699 5704 5726 5715 5715 5737 5745 5745 5743 5742 5742 5741 5737 5734 5730 5726 5722 5718 5713 5708 5704 5700 5698 5696 5692 5689 5684 5680 5676 5674 5672 5671 5670 5669
5735 5738 5767 5776 5768 5758 5755 5738 5708 5694 5692 5701 5717 5708 5721 5742 5745 5746 5745 5742 5739 5735 5733 5731 5728 5723 5718 5714 5709 5704 5698 5696 5694 5691 5688 5685 5681 5676 5672 5670 5669 5667 5666 5665
5736 5739 5771 5778 5781 5769 5751 5739 5738 5713 5708 5696 5702 5713 5725 5737 5735 5737 5737 5735 5731 5729 5729 5726 5723 5718 5713 5710 5705 5700 5695 5692 5689 5686 5683 5680 5676 5673 5669 5667 5665 5663 5662 5661
5751 5739 5757 5772 5775 5770 5761 5750 5725 5709 5694 5686 5697 5703 5706 5720 5724 5727 5728 5726 5725 5725 5723 5720 5716 5712 5708 5705 5702 5697 5693 5689 5685 5682 5679 5676 5673 5669 5667 5663 5661 5659 5658 5657
5754 5734 5741 5753 5750 5748 5751 5742 5726 5709 5704 5688 5682 5696 5729 5725 5725 5723 5723 5722 5721 5718 5717 5714 5711 5707 5704 5700 5696 5692 5689 5685 5681 5678 5675 5672 5668 5665 5663 5659 5657 5656 5654 5653
5750 5730 5722 5739 5759 5766 5756 5745 5727 5707 5702 5698 5687 5696 5734 5729 5725 5722 5719 5720 5718 5716 5712 5709 5706 5702 5698 5694 5691 5688 5685 5682 5678 5675 5672 5669 5665 5661 5658 5655 5653 5652 5650 5649
5749 5725 5709 5718 5732 5748 5747 5749 5739 5720 5704 5694 5686 5697 5726 5724 5719 5718 5716 5714 5712 5710 5706 5702 5698 5695 5691 5689 5686 5683 5681 5678 5675 5671 5667 5663 5660 5656 5654 5651 5649 5648 5646 5644
5755 5725 5713 5708 5718 5733 5735 5741 5740 5721 5699 5695 5700 5702 5709 5713 5711 5711 5711 5709 5706 5704 5700 5697 5692 5689 5687 5684 5681 5678 5676 5674 5671 5667 5662 5658 5655 5653 5651 5648 5646 5644 5643 5640
5747 5726 5729 5731 5741 5741 5737 5737 5737 5727 5718 5706 5707 5704 5708 5710 5710 5708 5705 5703 5700 5697 5694 5691 5688 5684 5682 5679 5677 5675 5672 5670 5667 5663 5659 5655 5653 5650 5647 5644 5642 5640 5639 5637
5738 5726 5726 5725 5738 5738 5733 5736 5735 5731 5725 5715 5709 5704 5713 5711 5707 5702 5699 5697 5694 5691 5689 5686 5683 5680 5677 5675 5673 5671 5668 5666 5663 5659 5655 5652 5649 5646 5643 5641 5639 5636 5634 5632
5728 5721 5711 5707 5725 5725 5712 5727 5729 5725 5725 5717 5703 5704 5708 5702 5701 5697 5695 5693 5689 5686 5684 5680 5678 5675 5672 5670 5668 5666 5664 5661 5658 5654 5651 5648 5644 5641 5639 5637 5634 5631 5629 5627
5725 5715 5702 5700 5706 5693 5712 5735 5734 5724 5721 5722 5715 5711 5708 5703 5699 5696 5693 5689 5685 5683 5678 5675 5673 5671 5668 5666 5664 5661 5658 5655 5652 5648 5645 5643 5640 5637 5635 5632 5629 5627 5625 5622
5733 5717 5699 5689 5687 5694 5714 5726 5726 5715 5707 5716 5711 5707 5702 5699 5692 5686 5689 5688 5684 5680 5675 5671 5669 5666 5664 5662 5659 5655 5652 5648 5645 5643 5641 5639 5636 5633 5630 5627 5624 5623 5621 5619
5725 5717 5700 5689 5683 5681 5701 5725 5732 5717 5693 5709 5708 5701 5696 5691 5674 5673 5683 5683 5680 5676 5672 5668 5664 5661 5658 5655 5653 5649 5645 5642 5639 5638 5637 5635 5633 5629 5626 5623 5621 5619 5617 5615
5704 5700 5693 5686 5680 5689 5713 5725 5723 5693 5691 5705 5704 5699 5693 5685 5681 5679 5679 5677 5674 5670 5667 5664 5659 5654 5652 5650 5647 5642 5639 5637 5636 5635 5633 5631 5628 5625 5622 5619 5617 5615 5613 5611
5696 5689 5685 5681 5675 5682 5715 5715 5703 5698 5705 5704 5699 5695 5690 5684 5681 5677 5674 5670 5667 5663 5660 5657 5652 5648 5646 5645 5641 5636 5634 5634 5633 5630 5628 5625 5623 5622 5620 5616 5613 5612 5609 5607
5697 5695 5689 5686 5686 5700 5708 5707 5707 5706 5701 5698 5693 5689 5685 5679 5674 5670 5666 5663 5660 5657 5653 5650 5646 5642 5640 5639 5636 5631 5630 5630 5627 5625 5622 5620 5619 5617 5615 5612 5609 5607 5605 5602
5698 5701 5690 5685 5690 5698 5701 5701 5701 5702 5698 5696 5691 5686 5681 5674 5668 5664 5659 5655 5652 5649 5646 5643 5639 5636 5634 5632 5630 5627 5626 5625 5622 5619 5617 5615 5613 5612 5610 5607 5605 5603 5601 5599
5689 5692 5683 5678 5683 5687 5690 5691 5692 5693 5693 5689 5685 5681 5676 5669 5661 5657 5651 5648 5644 5641 5638 5636 5632 5629 5627 5626 5625 5623 5622 5619 5616 5613 5612 5610 5609 5607 5605 5604 5602 5601 5599 5597
5683 5681 5675 5671 5679 5676 5677 5684 5687 5684 5681 5680 5676 5671 5667 5662 5655 5650 5645 5642 5638 5635 5632 5630 5627 5624 5622 5620 5619 5618 5616 5613 5610 5608 5606 5605 5604 5602 5601 5599 5599 5600 5598 5596